Temp
-4 -4 -4 -4 -5 -4 -4 -5 -5 -4 -5 -4 -4 -4 -4 -4 -4 -4 -4 -4 -4 -4 -4 -4 -4 -4 -4 -4 -5 -5 -5 -5 -5 -5 -5 -5 -5 -5 -5 -5 -6 -6 -6 -6 -6 -6 -6 -6 -6
-4 -4 -4 -4 -4 -5 -4 -4 -5 -4 -5 -5 -5 -5 -5 -5 -5 -4 -4 -4 -4 -4 -4 -4 -4 -4 -4 -4 -4 -5 -5 -5 -5 -6 -5 -5 -5 -5 -5 -6 -6 -6 -6 -6 -6 -6 -6 -6 -6
-4 -4 -4 -5 -4 -5 -5 -5 -4 -5 -5 -5 -6 -5 -5 -5 -5 -4 -4 -4 -4 -4 -4 -4 -4 -4 -4 -4 -4 -5 -5 -5 -5 -5 -6 -5 -5 -5 -5 -6 -6 -6 -6 -5 -5 -5 -6 -6 -6
-4 -5 -5 -5 -4 -6 -5 -4 -4 -5 -5 -4 -5 -5 -5 -5 -6 -5 -5 -4 -4 -4 -4 -5 -4 -4 -4 -4 -4 -5 -5 -5 -6 -5 -5 -6 -5 -5 -5 -5 -6 -6 -6 -6 -6 -6 -6 -5 -6
-5 -5 -5 -4 -5 -5 -5 -5 -4 -5 -5 -5 -5 -5 -4 -5 -6 -5 -5 -5 -4 -4 -5 -5 -4 -4 -4 -4 -4 -4 -4 -5 -5 -5 -5 -5 -5 -5 -5 -6 -5 -6 -6 -6 -6 -6 -6 -6 -6
-5 -5 -5 -4 -5 -5 -6 -5 -4 -4 -6 -5 -5 -5 -4 -5 -6 -6 -5 -5 -5 -4 -5 -5 -5 -4 -4 -5 -5 -4 -5 -5 -5 -5 -4 -5 -5 -5 -5 -5 -5 -5 -6 -6 -6 -6 -6 -6 -6
-5 -5 -5 -5 -4 -6 -5 -4 -5 -5 -5 -5 -5 -5 -4 -5 -6 -6 -6 -6 -6 -5 -5 -5 -5 -5 -4 -5 -5 -4 -5 -5 -5 -5 -4 -4 -4 -5 -5 -5 -5 -5 -5 -5 -6 -6 -6 -5 -6
-5 -5 -6 -5 -5 -4 -5 -4 -5 -4 -6 -4 -5 -5 -4 -4 -5 -6 -7 -5 -6 -5 -5 -5 -5 -5 -4 -4 -4 -4 -5 -5 -5 -4 -4 -4 -4 -4 -5 -5 -5 -5 -5 -6 -6 -6 -6 -6 -6
-5 -5 -5 -5 -5 -4 -5 -5 -5 -4 -5 -5 -6 -6 -5 -4 -5 -5 -6 -6 -5 -5 -6 -6 -5 -5 -5 -5 -5 -4 -5 -5 -4 -4 -4 -4 -4 -5 -5 -5 -6 -6 -6 -5 -5 -6 -6 -6 -6
-5 -5 -6 -5 -5 -6 -5 -5 -3 -4 -4 -5 -6 -6 -6 -4 -5 -6 -6 -7 -6 -6 -6 -6 -6 -6 -6 -6 -6 -5 -4 -5 -5 -5 -5 -5 -5 -5 -5 -5 -6 -6 -5 -6 -5 -5 -6 -6 -6
-6 -6 -5 -5 -5 -5 -5 -6 -5 -5 -4 -5 -6 -6 -6 -5 -5 -5 -7 -6 -6 -6 -6 -6 -6 -6 -6 -6 -6 -5 -5 -4 -4 -4 -5 -5 -5 -5 -5 -5 -5 -6 -6 -6 -5 -5 -5 -6 -6
-5 -6 -6 -5 -5 -6 -5 -5 -5 -5 -5 -5 -6 -6 -6 -5 -5 -6 -6 -6 -7 -6 -7 -7 -7 -6 -7 -7 -6 -6 -5 -5 -5 -5 -5 -5 -5 -6 -6 -6 -5 -5 -5 -5 -5 -5 -5 -6 -6
-6 -6 -6 -5 -6 -5 -5 -4 -5 -4 -5 -5 -5 -6 -6 -6 -7 -7 -6 -7 -6 -7 -7 -8 -7 -7 -7 -6 -6 -6 -5 -5 -5 -5 -5 -5 -5 -6 -6 -6 -6 -5 -5 -5 -5 -5 -5 -5 -6
-6 -6 -6 -5 -6 -6 -5 -5 -5 -5 -5 -6 -5 -5 -6 -7 -7 -7 -7 -7 -7 -7 -8 -8 -7 -8 -7 -7 -6 -6 -5 -5 -6 -6 -5 -5 -6 -6 -5 -5 -5 -5 -5 -5 -5 -5 -5 -5 -6
-5 -5 -5 -6 -6 -5 -4 -5 -6 -6 -6 -5 -5 -5 -6 -6 -7 -7 -7 -8 -7 -8 -7 -7 -8 -7 -8 -6 -6 -6 -5 -6 -6 -6 -6 -5 -5 -6 -6 -5 -5 -5 -5 -5 -5 -5 -5 -6 -6
-5 -5 -5 -5 -6 -6 -6 -6 -7 -5 -5 -6 -5 -5 -5 -6 -6 -7 -7 -8 -7 -8 -8 -8 -7 -7 -7 -6 -6 -6 -6 -5 -6 -6 -5 -5 -6 -6 -6 -5 -5 -5 -5 -5 -5 -6 -5 -5 -6
-6 -6 -6 -6 -6 -6 -6 -6 -6 -6 -5 -5 -4 -5 -6 -6 -6 -7 -8 -7 -8 -7 -7 -7 -7 -7 -7 -6 -7 -6 -5 -5 -5 -5 -5 -6 -5 -5 -6 -5 -5 -5 -6 -5 -5 -6 -6 -6 -6
-5 -6 -6 -6 -6 -7 -7 -6 -5 -6 -6 -5 -5 -5 -5 -5 -6 -7 -7 -8 -7 -7 -7 -7 -7 -7 -6 -6 -6 -6 -6 -5 -5 -5 -5 -5 -5 -5 -5 -5 -6 -6 -6 -6 -6 -6 -6 -6 -6
-6 -6 -7 -6 -6 -6 -6 -6 -5 -5 -6 -6 -5 -5 -5 -5 -6 -7 -7 -7 -7 -7 -7 -7 -7 -7 -6 -6 -6 -5 -6 -5 -5 -5 -4 -4 -4 -5 -5 -6 -6 -6 -6 -6 -6 -6 -6 -6 -6
-7 -6 -6 -7 -8 -6 -6 -4 -5 -5 -6 -6 -5 -5 -4 -5 -6 -7 -8 -7 -6 -6 -7 -7 -7 -7 -6 -6 -6 -6 -5 -5 -5 -5 -5 -5 -5 -5 -5 -5 -6 -6 -6 -6 -6 -7 -6 -6 -6
-7 -7 -7 -6 -6 -7 -6 -6 -4 -5 -6 -6 -6 -5 -4 -5 -5 -6 -6 -5 -6 -7 -7 -7 -7 -6 -6 -6 -6 -5 -5 -5 -5 -5 -5 -5 -5 -5 -5 -5 -5 -5 -6 -6 -6 -6 -6 -6 -6
-7 -7 -6 -6 -5 -8 -6 -6 -5 -5 -6 -6 -6 -5 -5 -5 -6 -6 -5 -5 -6 -7 -7 -7 -7 -6 -6 -6 -5 -5 -5 -5 -5 -6 -5 -5 -5 -5 -5 -5 -6 -6 -6 -6 -6 -6 -6 -6 -6
-6 -6 -6 -7 -7 -6 -6 -6 -6 -5 -6 -6 -6 -6 -5 -5 -6 -6 -6 -6 -7 -8 -7 -6 -6 -6 -6 -6 -5 -5 -5 -5 -5 -5 -5 -5 -5 -5 -5 -6 -6 -6 -6 -6 -6 -6 -5 -5 -5
-7 -6 -6 -6 -7 -6 -6 -6 -6 -6 -6 -6 -6 -7 -6 -5 -6 -6 -7 -7 -7 -7 -6 -6 -6 -6 -6 -6 -6 -5 -5 -5 -5 -5 -5 -4 -5 -5 -6 -6 -6 -6 -6 -5 -5 -6 -6 -6 -6
-7 -7 -7 -8 -7 -7 -6 -6 -7 -7 -6 -6 -7 -7 -6 -7 -6 -6 -6 -6 -7 -6 -6 -6 -6 -6 -6 -6 -6 -6 -5 -5 -5 -5 -5 -5 -5 -5 -6 -6 -6 -6 -6 -6 -6 -6 -6 -7 -6
-6 -7 -7 -7 -7 -6 -6 -6 -7 -6 -6 -6 -6 -7 -7 -7 -7 -7 -7 -7 -6 -6 -6 -6 -6 -6 -6 -6 -6 -6 -6 -6 -5 -5 -5 -5 -5 -5 -6 -6 -6 -6 -7 -7 -7 -6 -6 -6 -6
-6 -7 -7 -7 -7 -6 -7 -6 -6 -6 -6 -5 -6 -6 -6 -6 -7 -7 -6 -7 -6 -6 -6 -6 -6 -6 -6 -6 -6 -6 -6 -6 -5 -5 -5 -5 -6 -6 -6 -7 -7 -7 -7 -6 -7 -6 -6 -6 -6
-7 -7 -7 -7 -6 -7 -7 -5 -5 -5 -5 -6 -6 -5 -5 -6 -6 -6 -6 -6 -6 -6 -6 -6 -6 -6 -6 -6 -6 -6 -6 -6 -5 -5 -5 -6 -6 -6 -6 -7 -7 -7 -7 -7 -7 -6 -6 -6 -6
-7 -7 -7 -7 -6 -6 -6 -6 -6 -5 -5 -5 -5 -5 -5 -5 -5 -5 -6 -6 -6 -6 -6 -6 -6 -6 -6 -6 -5 -5 -5 -5 -6 -6 -6 -6 -6 -7 -7 -7 -8 -7 -7 -7 -6 -6 -6 -6 -6
-7 -8 -7 -7 -7 -7 -7 -6 -5 -5 -5 -5 -5 -4 -4 -5 -5 -5 -5 -6 -6 -6 -6 -6 -6 -5 -5 -6 -6 -6 -6 -5 -5 -6 -6 -6 -6 -7 -7 -7 -7 -7 -7 -7 -7 -6 -6 -6 -6
Height
5913 5910 5905 5904 5908 5907 5907 5908 5907 5908 5909 5910 5912 5914 5915 5914 5913 5915 5913 5914 5913 5913 5913 5912 5912 5912 5912 5911 5911 5911 5910 5909 5909 5909 5909 5909 5909 5907 5908 5908 5908 5908 5909 5908 5908 5907 5908 5908 5908
5912 5909 5908 5890 5906 5908 5908 5906 5907 5908 5909 5909 5911 5911 5913 5913 5913 5914 5913 5914 5915 5914 5915 5915 5914 5914 5913 5912 5912 5911 5911 5910 5910 5910 5910 5910 5910 5910 5909 5909 5909 5909 5910 5910 5911 5910 5911 5911 5911
5912 5909 5908 5897 5905 5908 5907 5906 5907 5909 5909 5908 5911 5911 5912 5914 5913 5913 5913 5914 5915 5915 5916 5917 5916 5915 5914 5913 5912 5912 5912 5911 5911 5912 5912 5911 5910 5910 5911 5911 5911 5910 5910 5911 5912 5913 5913 5913 5913
5911 5910 5909 5906 5905 5906 5907 5907 5908 5908 5908 5909 5909 5909 5911 5914 5912 5911 5914 5914 5915 5915 5916 5916 5916 5915 5915 5914 5914 5913 5913 5913 5911 5912 5913 5913 5912 5911 5911 5912 5912 5912 5912 5913 5914 5913 5914 5914 5914
5910 5909 5908 5899 5904 5906 5907 5906 5906 5908 5908 5908 5909 5908 5910 5914 5912 5909 5913 5914 5915 5915 5916 5916 5915 5915 5916 5916 5915 5914 5914 5913 5912 5911 5912 5913 5914 5914 5914 5914 5915 5915 5915 5916 5916 5916 5915 5916 5916
5910 5910 5907 5907 5904 5904 5904 5904 5906 5907 5907 5908 5908 5906 5910 5912 5912 5910 5911 5912 5914 5915 5915 5915 5915 5916 5916 5917 5917 5916 5915 5914 5912 5911 5911 5913 5914 5915 5916 5916 5916 5917 5917 5918 5919 5919 5918 5918 5919
5909 5909 5909 5906 5907 5905 5907 5904 5906 5906 5906 5906 5907 5905 5907 5911 5912 5910 5910 5911 5913 5914 5915 5915 5915 5916 5916 5917 5918 5917 5916 5913 5912 5911 5910 5913 5914 5915 5916 5917 5917 5917 5918 5919 5920 5921 5921 5921 5920
5910 5908 5910 5907 5906 5903 5905 5904 5906 5905 5906 5907 5907 5903 5902 5908 5909 5909 5908 5911 5912 5913 5913 5914 5915 5916 5917 5917 5919 5918 5916 5913 5911 5910 5912 5914 5915 5916 5916 5916 5917 5918 5919 5919 5920 5922 5922 5922 5922
5908 5901 5907 5907 5905 5906 5907 5905 5903 5903 5905 5904 5903 5902 5899 5904 5905 5904 5904 5905 5909 5910 5911 5914 5915 5915 5916 5917 5919 5918 5916 5914 5912 5911 5912 5915 5916 5917 5918 5918 5918 5919 5920 5921 5921 5922 5922 5922 5922
5907 5906 5904 5903 5902 5904 5905 5905 5904 5906 5905 5903 5902 5899 5896 5895 5903 5902 5902 5901 5905 5906 5909 5912 5914 5914 5915 5917 5919 5917 5915 5914 5912 5912 5913 5914 5916 5917 5919 5920 5920 5920 5920 5921 5922 5922 5922 5923 5923
5905 5904 5901 5898 5899 5901 5901 5906 5904 5902 5902 5901 5899 5898 5896 5893 5898 5899 5900 5901 5902 5905 5907 5910 5913 5914 5916 5917 5919 5917 5916 5914 5913 5912 5912 5914 5916 5919 5920 5921 5921 5921 5922 5922 5923 5922 5923 5923 5923
5904 5901 5901 5900 5902 5903 5902 5901 5904 5900 5899 5901 5900 5897 5895 5893 5892 5895 5897 5901 5900 5903 5907 5910 5911 5914 5916 5918 5917 5916 5915 5915 5912 5911 5912 5913 5916 5919 5922 5923 5923 5923 5923 5923 5923 5923 5923 5923 5923
5902 5898 5898 5900 5900 5901 5903 5899 5900 5900 5898 5899 5898 5898 5894 5891 5892 5892 5892 5896 5899 5901 5905 5908 5911 5914 5917 5919 5917 5916 5915 5916 5914 5912 5913 5915 5917 5919 5922 5923 5924 5924 5923 5923 5923 5923 5923 5923 5923
5902 5898 5898 5897 5900 5900 5901 5898 5899 5900 5898 5895 5895 5895 5893 5891 5891 5889 5888 5885 5895 5901 5904 5907 5911 5915 5918 5919 5919 5916 5915 5915 5914 5912 5914 5915 5914 5916 5922 5924 5925 5925 5924 5924 5923 5923 5923 5923 5922
5900 5898 5894 5895 5891 5901 5899 5895 5899 5898 5897 5896 5894 5893 5892 5887 5886 5887 5888 5888 5894 5900 5902 5906 5912 5916 5918 5921 5919 5918 5915 5917 5916 5917 5915 5914 5913 5915 5923 5924 5925 5925 5924 5924 5924 5923 5922 5922 5922
5900 5897 5898 5896 5896 5897 5898 5899 5898 5896 5896 5895 5893 5891 5889 5886 5886 5886 5887 5888 5892 5900 5903 5907 5911 5915 5918 5919 5919 5919 5917 5918 5922 5920 5919 5919 5919 5921 5922 5923 5924 5925 5925 5925 5924 5923 5923 5922 5921
5899 5897 5895 5896 5898 5897 5899 5899 5896 5894 5896 5895 5893 5890 5889 5888 5888 5888 5890 5887 5896 5901 5905 5908 5910 5913 5917 5919 5920 5920 5920 5920 5922 5923 5922 5922 5922 5924 5924 5924 5924 5925 5925 5924 5923 5922 5921 5921 5921
5896 5896 5897 5896 5895 5895 5899 5899 5896 5895 5895 5895 5893 5890 5889 5889 5889 5890 5892 5891 5897 5901 5905 5908 5909 5913 5917 5919 5921 5921 5922 5921 5923 5924 5924 5925 5924 5925 5925 5924 5924 5925 5925 5923 5921 5920 5920 5919 5919
5895 5897 5895 5893 5896 5898 5900 5901 5897 5897 5894 5895 5893 5892 5892 5891 5891 5893 5893 5896 5899 5902 5905 5909 5908 5913 5917 5920 5919 5922 5922 5923 5923 5924 5926 5924 5924 5925 5924 5924 5924 5925 5924 5922 5921 5920 5919 5919 5917
5893 5892 5895 5895 5894 5897 5901 5901 5900 5897 5895 5895 5895 5893 5894 5894 5894 5895 5895 5898 5901 5903 5906 5906 5910 5914 5917 5919 5922 5923 5923 5924 5924 5924 5924 5925 5924 5923 5923 5924 5925 5925 5924 5922 5920 5919 5918 5917 5916
5895 5896 5895 5897 5896 5896 5901 5901 5899 5897 5897 5896 5897 5895 5896 5896 5897 5897 5900 5903 5901 5903 5904 5908 5912 5916 5918 5921 5923 5924 5923 5924 5923 5923 5923 5923 5924 5925 5924 5924 5924 5923 5922 5920 5919 5919 5918 5916 5915
5898 5899 5899 5899 5898 5897 5897 5898 5898 5900 5899 5899 5899 5898 5899 5899 5898 5898 5898 5898 5900 5903 5907 5912 5917 5919 5920 5922 5924 5924 5925 5925 5924 5925 5925 5927 5926 5926 5925 5924 5924 5924 5924 5922 5921 5921 5919 5917 5915
5899 5899 5901 5902 5900 5897 5897 5899 5898 5899 5901 5901 5901 5900 5901 5901 5901 5903 5901 5901 5903 5905 5912 5915 5918 5920 5921 5922 5922 5923 5924 5925 5926 5925 5926 5925 5926 5926 5924 5924 5925 5923 5921 5921 5921 5920 5918 5917 5914
5900 5896 5896 5899 5901 5900 5900 5901 5898 5898 5900 5902 5902 5902 5905 5905 5902 5904 5905 5907 5909 5912 5914 5917 5918 5919 5920 5922 5922 5922 5924 5925 5925 5925 5926 5926 5926 5925 5923 5924 5924 5922 5920 5919 5918 5917 5915 5913 5911
5901 5899 5898 5899 5902 5903 5901 5900 5898 5896 5896 5897 5902 5904 5906 5906 5905 5907 5909 5911 5912 5914 5915 5917 5918 5919 5921 5922 5923 5923 5924 5924 5926 5926 5926 5925 5923 5924 5924 5923 5922 5920 5918 5917 5914 5913 5912 5912 5909
5906 5908 5906 5902 5903 5903 5902 5900 5899 5900 5901 5900 5899 5902 5905 5907 5908 5909 5910 5911 5913 5914 5915 5915 5916 5918 5920 5922 5923 5924 5924 5924 5924 5923 5923 5923 5923 5924 5922 5921 5920 5919 5917 5917 5914 5911 5908 5907 5905
5910 5909 5908 5905 5894 5897 5901 5903 5902 5901 5902 5901 5900 5904 5905 5906 5908 5910 5911 5913 5914 5915 5915 5916 5918 5920 5922 5922 5923 5924 5924 5924 5925 5925 5923 5921 5922 5921 5921 5918 5917 5915 5915 5913 5911 5906 5903 5903 5901
5911 5910 5911 5909 5906 5900 5902 5904 5904 5904 5904 5902 5902 5902 5905 5906 5907 5909 5911 5913 5913 5915 5918 5919 5920 5921 5921 5920 5921 5921 5921 5922 5923 5923 5922 5921 5920 5918 5918 5917 5915 5913 5911 5909 5907 5904 5901 5900 5898
5911 5911 5912 5911 5911 5909 5908 5905 5907 5905 5906 5906 5906 5905 5904 5905 5907 5906 5908 5911 5913 5913 5915 5920 5921 5922 5922 5922 5921 5920 5918 5918 5919 5918 5919 5921 5917 5916 5916 5914 5911 5909 5907 5905 5903 5901 5899 5896 5894
5909 5910 5912 5911 5910 5910 5912 5912 5908 5905 5904 5904 5906 5908 5904 5902 5903 5903 5903 5905 5908 5911 5914 5918 5919 5920 5921 5921 5921 5921 5919 5917 5915 5914 5913 5915 5915 5914 5911 5911 5909 5908 5904 5903 5901 5900 5897 5895 5891
Wind_Speed
2 3 3 8 9 10 11 9 8 7 3 4 4 5 6 4 3 6 7 6 7 8 10 11 11 11 12 10 10 9 9 11 12 9 9 10 10 10 11 11 11 11 13 15 16 17 17 16 16
4 2 1 9 14 16 6 7 7 5 4 3 3 4 5 6 3 5 5 6 6 6 7 8 9 9 9 9 9 8 7 9 8 6 7 8 9 8 10 11 11 11 12 12 13 14 15 15 16
5 3 8 14 13 9 4 4 1 2 5 3 2 1 1 4 3 3 4 5 5 5 5 5 7 6 7 6 7 6 5 5 5 4 5 8 9 9 9 10 11 11 12 11 12 12 12 13 14
5 5 5 3 10 9 4 5 1 4 2 0 3 3 0 5 8 7 5 5 5 5 5 4 4 3 4 5 5 5 4 4 4 1 4 6 6 8 9 9 9 9 11 10 9 11 11 10 11
6 9 6 12 10 8 5 3 2 6 4 3 3 1 3 4 9 8 8 7 6 5 5 4 4 3 2 3 4 4 4 3 5 6 9 9 8 8 10 10 9 9 8 8 7 8 8 9 8
3 4 7 14 4 4 3 4 6 10 5 1 2 2 2 6 10 9 5 6 6 6 5 5 5 3 1 1 4 5 7 7 6 4 9 12 10 11 10 10 9 8 8 7 5 5 4 5 6
3 4 7 13 7 7 4 6 8 3 6 3 3 4 6 9 12 10 8 9 10 9 9 7 5 5 4 0 5 7 8 10 4 4 12 14 14 11 11 11 11 9 8 8 5 4 4 5 5
7 9 12 5 2 19 1 3 7 3 6 3 5 8 7 2 5 9 13 11 10 8 11 9 7 6 4 4 5 8 9 9 5 4 11 15 14 13 12 11 10 9 7 7 6 4 2 3 5
13 8 7 4 10 3 5 5 3 3 4 6 8 8 10 3 2 4 10 11 11 13 12 11 8 5 3 4 4 8 12 8 3 5 7 13 14 14 12 11 10 8 6 6 6 5 3 2 2
17 11 10 11 5 1 3 1 8 5 6 6 2 12 13 9 2 5 8 13 11 15 14 13 10 8 4 3 4 7 11 8 2 4 7 13 15 15 13 10 9 8 7 5 5 4 4 2 2
10 11 9 3 10 3 4 4 5 7 7 8 6 7 13 11 4 6 8 11 14 17 15 16 13 9 7 4 4 6 9 8 3 4 7 8 17 15 12 11 8 7 6 5 4 3 2 2 1
10 10 4 6 7 3 8 4 5 7 6 6 2 7 9 14 7 7 9 10 16 16 18 17 13 10 8 6 6 7 8 4 4 2 6 7 18 17 12 8 6 6 6 5 3 2 1 1 1
8 5 7 6 7 5 4 1 8 6 7 5 6 6 7 7 10 13 13 12 17 20 20 18 14 12 10 7 5 3 1 5 6 6 6 13 17 16 13 10 7 4 4 2 2 3 3 2 2
4 4 5 10 9 11 4 4 7 8 10 10 9 4 7 8 11 11 11 18 12 20 22 21 17 12 10 1 5 2 2 3 6 6 7 11 20 21 13 11 8 6 3 1 2 2 3 2 2
9 8 8 7 15 5 2 10 7 8 6 7 7 9 6 11 9 6 6 14 18 20 22 21 17 13 7 8 5 2 1 4 8 11 18 16 14 25 22 12 9 7 5 2 1 1 1 2 1
11 10 13 9 6 7 6 3 6 5 6 6 8 8 5 6 4 4 3 9 20 19 18 18 20 14 10 8 5 4 4 5 11 13 16 18 18 20 19 12 10 6 5 4 1 0 1 2 3
20 13 9 15 8 7 5 6 4 6 4 6 7 4 3 2 3 7 8 14 19 19 19 18 14 12 10 13 8 6 5 7 10 10 12 13 16 17 13 9 8 5 2 1 1 1 0 3 4
16 5 8 10 14 14 7 7 5 5 4 8 9 7 5 7 10 14 19 20 18 19 17 15 14 9 14 12 10 10 7 9 9 10 11 11 12 12 9 9 6 3 1 0 1 2 3 3 5
3 9 7 13 14 5 9 4 5 4 6 9 8 8 5 6 5 18 19 19 19 20 17 14 16 17 13 12 10 10 10 9 9 9 10 12 11 10 8 7 5 4 2 1 2 2 3 4 5
7 13 8 11 9 8 13 6 7 6 6 7 8 10 8 14 8 11 18 21 23 21 19 22 19 12 12 11 11 10 9 10 10 9 9 9 9 8 7 4 4 3 2 3 3 5 4 4 4
8 14 12 9 5 5 4 3 9 9 5 6 9 10 10 12 13 12 16 20 19 21 25 25 17 13 12 11 11 11 11 9 8 8 6 4 4 5 5 4 3 3 2 2 4 6 7 6 6
7 15 2 7 7 7 7 10 5 9 8 4 8 10 9 14 11 7 6 9 10 15 22 18 15 14 14 13 13 12 11 10 9 6 6 4 3 3 2 2 2 4 7 8 9 11 10 9 10
14 13 17 18 16 7 9 10 10 9 11 7 7 9 8 13 15 6 10 12 13 16 19 15 15 13 13 12 12 11 11 11 9 9 6 4 4 2 1 5 7 6 7 7 9 12 13 14 12
15 27 30 16 13 2 10 10 15 14 13 12 7 6 6 12 16 14 15 19 20 17 14 10 12 11 11 11 10 10 10 9 9 7 5 3 3 4 4 6 9 9 10 12 13 15 14 13 16
25 26 30 13 3 10 19 15 13 13 14 16 12 8 4 8 16 15 16 16 13 12 11 12 10 9 8 10 11 11 11 10 9 6 3 3 5 8 8 9 11 13 14 14 15 15 15 15 16
22 23 23 26 15 15 16 17 14 11 11 13 16 11 9 6 10 16 16 13 13 14 16 14 12 10 9 10 11 11 8 6 4 3 3 5 7 9 9 10 12 14 13 19 20 18 17 14 15
24 26 26 28 24 22 19 13 15 15 14 12 14 13 9 12 11 9 13 15 13 12 13 12 12 12 12 11 10 7 5 5 5 4 6 9 9 9 10 10 12 14 17 19 28 25 20 12 16
21 25 25 22 25 26 14 8 12 10 13 14 11 14 12 10 6 11 13 15 14 11 9 11 12 13 13 11 10 9 6 5 6 8 10 12 10 9 11 13 12 10 17 20 16 14 13 11 14
13 15 19 21 17 21 20 3 9 12 13 9 7 8 12 12 9 4 11 16 19 17 14 12 8 7 7 7 8 8 7 7 8 9 11 12 12 11 11 13 14 15 18 17 16 13 14 17 17
8 10 12 15 16 15 15 14 13 10 6 14 13 9 12 12 9 7 7 9 12 13 12 15 13 12 10 10 10 8 9 9 9 11 13 13 12 12 12 12 15 16 10 15 13 14 16 14 13
Wind_Direction
71 41 32 158 117 131 122 137 122 86 117 92 95 113 118 123 127 109 99 89 93 95 100 97 91 87 86 79 75 68 64 63 60 100 94 94 86 94 107 104 106 106 111 112 112 107 104 103 97
19 88 215 92 110 127 148 102 109 117 104 118 103 106 83 119 146 108 125 121 110 111 111 109 100 93 86 84 78 70 73 87 61 80 109 110 108 94 106 115 116 115 111 111 111 109 106 104 105
22 334 314 35 84 108 158 95 157 146 165 169 191 212 75 125 173 143 165 139 130 129 123 128 113 104 93 86 75 75 74 96 65 98 114 131 127 121 109 120 121 123 117 115 116 115 114 107 102
21 342 314 120 81 52 123 227 163 201 223 38 294 249 236 122 169 200 169 184 171 151 148 147 130 127 101 85 69 50 55 89 13 128 193 168 145 139 126 115 119 120 120 124 124 123 117 107 105
0 355 276 142 84 80 96 99 154 141 131 61 41 246 93 126 172 203 165 188 184 182 172 158 171 200 100 77 64 35 28 19 311 312 216 196 171 160 144 131 120 114 116 124 137 121 111 112 114
331 312 292 140 244 146 74 98 37 91 100 179 138 293 88 105 167 203 187 189 187 204 201 189 194 211 219 117 13 13 5 7 20 11 192 184 179 160 151 144 131 126 120 129 134 126 113 100 102
329 296 279 219 243 211 123 77 332 77 346 246 241 302 292 142 147 181 218 194 209 215 218 211 217 225 243 2 11 17 1 2 357 40 164 169 169 163 158 156 150 147 142 126 128 110 86 79 93
335 343 319 282 240 229 289 143 190 163 2 352 331 297 293 94 151 196 222 206 201 205 218 212 216 241 265 306 351 13 3 13 18 101 158 173 170 175 166 159 155 150 158 151 145 123 102 93 93
332 359 308 84 127 166 225 200 213 54 318 300 268 313 309 299 174 172 215 221 203 212 211 212 213 229 265 314 37 19 2 15 79 87 147 179 181 184 181 172 161 153 148 172 159 153 140 138 133
338 316 291 253 198 179 172 178 247 314 343 338 10 304 303 310 286 216 218 226 200 202 205 196 197 216 232 285 35 5 0 8 40 114 161 189 194 189 186 183 165 155 153 154 167 168 176 169 152
350 323 353 167 192 180 144 257 321 309 338 18 348 282 277 297 260 218 213 216 216 194 198 192 198 218 218 251 314 332 349 333 340 251 201 202 199 194 187 177 159 147 152 148 145 144 164 194 219
357 326 257 189 258 232 275 49 328 355 342 21 277 262 276 298 248 271 231 199 210 211 197 189 200 203 217 239 283 322 314 346 235 226 213 194 181 181 181 174 160 146 140 136 121 93 79 41 43
359 356 173 185 224 285 299 30 342 8 0 347 293 299 277 292 264 276 277 228 197 197 207 200 203 201 224 222 311 289 343 33 18 263 198 185 174 174 172 175 164 164 142 115 88 84 70 55 48
302 203 219 220 198 240 290 36 359 2 348 325 324 325 304 279 288 278 238 180 192 185 195 189 196 203 209 208 259 152 81 96 31 122 166 183 198 178 153 158 159 148 134 139 110 98 101 74 49
257 252 172 232 175 191 112 40 343 333 317 319 316 333 310 294 301 291 243 239 192 185 178 173 185 176 193 210 216 170 125 89 81 59 65 89 114 156 151 164 155 146 127 112 138 117 230 204 130
310 268 205 195 105 79 38 74 30 5 7 330 314 344 335 317 339 349 34 167 165 176 172 177 172 168 160 177 162 169 157 107 76 79 81 78 113 134 155 160 153 140 136 127 108 71 257 287 267
286 293 193 174 160 145 126 105 64 45 11 333 344 33 29 58 101 113 97 140 154 158 168 174 164 169 155 155 161 153 147 111 97 94 103 106 110 132 138 159 146 141 152 113 18 71 306 285 288
336 170 171 181 177 173 180 123 91 52 30 8 25 58 80 93 120 126 133 139 156 145 161 179 171 176 153 152 144 133 142 127 117 115 114 120 119 133 135 138 149 154 191 38 319 355 340 285 252
191 221 146 148 177 162 144 105 108 101 40 25 34 58 104 111 134 136 140 146 149 163 168 169 146 147 143 139 127 142 142 129 124 119 119 110 115 135 140 130 144 160 185 220 308 343 338 321 291
66 103 121 132 135 137 135 148 122 87 65 28 34 64 124 126 124 122 145 165 156 158 166 153 140 162 142 137 150 134 134 130 128 117 106 116 131 132 137 147 171 187 240 275 296 304 316 312 295
84 107 135 163 146 107 107 97 80 88 68 33 47 70 118 131 143 140 147 159 153 146 131 141 150 163 146 147 141 146 130 135 128 126 118 113 130 137 157 171 211 223 226 289 323 328 307 291 283
83 38 113 102 96 88 126 72 31 102 94 73 72 78 130 137 141 147 148 148 147 147 139 138 150 156 148 139 137 129 139 146 141 148 142 145 149 187 197 186 236 296 328 348 340 332 333 339 306
43 32 49 17 351 205 123 76 94 112 113 97 68 86 114 143 145 161 135 139 146 161 154 137 141 143 140 144 139 149 158 161 164 155 168 186 208 230 352 309 321 322 319 319 321 315 318 322 317
32 26 5 356 358 223 148 112 101 107 115 113 101 93 120 140 129 128 127 143 134 143 147 147 146 148 146 161 170 178 182 173 179 174 189 212 347 357 345 321 321 323 322 320 320 311 299 300 303
39 31 14 19 184 139 135 125 113 116 120 120 126 117 145 144 138 144 142 144 151 156 154 163 158 151 167 183 190 195 197 193 198 205 228 22 346 345 334 327 331 327 321 315 322 336 352 316 302
23 27 18 5 333 201 153 135 135 122 103 105 108 132 145 168 174 160 154 163 173 174 166 163 165 179 195 199 204 209 213 214 226 251 304 309 330 338 340 330 320 318 314 323 314 293 327 329 324
37 30 20 7 15 162 170 143 119 128 106 90 88 104 133 157 155 172 161 169 171 174 164 164 169 179 193 196 197 203 215 248 266 285 296 300 320 323 319 303 304 315 325 322 323 322 344 327 322
30 28 22 18 26 17 167 108 99 108 112 79 72 96 102 101 136 160 176 178 175 169 158 168 175 184 188 193 195 197 204 235 277 295 293 298 303 310 306 303 311 315 317 338 333 340 337 339 328
11 7 4 358 14 18 15 70 95 77 71 53 47 56 76 74 79 117 180 191 189 181 190 180 183 202 194 221 228 219 220 239 268 288 294 296 303 308 304 304 304 311 317 327 325 332 333 332 329
6 346 336 340 340 20 42 94 79 74 51 29 33 60 69 69 57 45 154 190 198 196 195 206 215 225 240 243 237 251 280 283 280 286 291 299 306 307 301 310 310 330 331 325 324 336 337 331 343